TimeCDT,TemperatureF,Dew PointF,Humidity,Sea Level PressureIn,VisibilityMPH,Wind Direction,Wind SpeedMPH,Gust SpeedMPH,PrecipitationIn,Events,Conditions,WindDirDegrees,DateUTC
12:13 AM,44.6,39.2,81,30.16,10.0,Calm,Calm,-,N/A,,Clear,0,2013-04-27 05:13:00
12:32 AM,42.8,37.4,81,30.16,10.0,Calm,Calm,-,N/A,,Clear,0,2013-04-27 05:32:00
12:52 AM,42.8,37.4,81,30.16,10.0,Calm,Calm,-,N/A,,Clear,0,2013-04-27 05:52:00
1:13 AM,42.8,37.4,81,30.15,10.0,Calm,Calm,-,N/A,,Clear,0,2013-04-27 06:13:00
1:32 AM,39.2,35.6,87,30.16,10.0,Calm,Calm,-,N/A,,Clear,0,2013-04-27 06:32:00
1:52 AM,39.2,35.6,87,30.15,10.0,Calm,Calm,-,N/A,,Clear,0,2013-04-27 06:52:00
2:12 AM,39.2,37.4,93,30.16,10.0,Calm,Calm,-,N/A,,Clear,0,2013-04-27 07:12:00
2:32 AM,41.0,39.2,93,30.15,10.0,Calm,Calm,-,N/A,,Clear,0,2013-04-27 07:32:00
2:53 AM,37.4,35.6,93,30.14,10.0,Calm,Calm,-,N/A,,Clear,0,2013-04-27 07:53:00
3:12 AM,35.6,33.8,93,30.14,10.0,Calm,Calm,-,N/A,,Clear,0,2013-04-27 08:12:00
3:32 AM,35.6,33.8,93,30.14,10.0,Calm,Calm,-,N/A,,Clear,0,2013-04-27 08:32:00
3:53 AM,37.4,35.6,93,30.14,10.0,Calm,Calm,-,N/A,,Clear,0,2013-04-27 08:53:00
4:12 AM,35.6,33.8,93,30.14,10.0,Calm,Calm,-,N/A,,Clear,0,2013-04-27 09:12:00
4:33 AM,32.0,30.2,93,30.13,10.0,Calm,Calm,-,N/A,,Clear,0,2013-04-27 09:33:00
4:52 AM,35.6,33.8,93,30.12,10.0,Calm,Calm,-,N/A,,Clear,0,2013-04-27 09:52:00
5:12 AM,35.6,33.8,93,30.12,10.0,Calm,Calm,-,N/A,,Clear,0,2013-04-27 10:12:00
5:32 AM,35.6,33.8,93,30.12,10.0,Calm,Calm,-,N/A,,Clear,0,2013-04-27 10:32:00
5:52 AM,35.6,33.8,93,30.12,10.0,Calm,Calm,-,N/A,,Clear,0,2013-04-27 10:52:00
6:13 AM,35.6,33.8,93,30.11,10.0,Calm,Calm,-,N/A,,Clear,0,2013-04-27 11:13:00
6:32 AM,33.8,32.0,93,30.11,10.0,Calm,Calm,-,N/A,,Clear,0,2013-04-27 11:32:00
6:52 AM,33.8,33.8,100,30.11,10.0,Calm,Calm,-,N/A,,Clear,0,2013-04-27 11:52:00
7:13 AM,37.4,35.6,93,30.11,10.0,Calm,Calm,-,N/A,,Clear,0,2013-04-27 12:13:00
7:32 AM,39.2,37.4,93,30.11,10.0,Calm,Calm,-,N/A,,Clear,0,2013-04-27 12:32:00
7:52 AM,42.8,37.4,81,30.11,10.0,Calm,Calm,-,N/A,,Clear,0,2013-04-27 12:52:00
8:13 AM,46.4,39.2,76,30.11,10.0,Calm,Calm,-,N/A,,Clear,0,2013-04-27 13:13:00
8:32 AM,50.0,41.0,71,30.10,10.0,Calm,Calm,-,N/A,,Clear,0,2013-04-27 13:32:00
8:52 AM,53.6,41.0,62,30.10,10.0,Calm,Calm,-,N/A,,Clear,0,2013-04-27 13:52:00
9:13 AM,55.4,41.0,58,30.10,10.0,Calm,Calm,-,N/A,,Clear,0,2013-04-27 14:13:00
9:32 AM,60.8,37.4,42,30.09,10.0,Calm,Calm,-,N/A,,Clear,0,2013-04-27 14:32:00
9:52 AM,62.6,30.2,30,30.09,10.0,Calm,Calm,-,N/A,,Clear,0,2013-04-27 14:52:00
10:13 AM,64.4,30.2,28,30.09,10.0,Calm,Calm,-,N/A,,Clear,0,2013-04-27 15:13:00
10:32 AM,64.4,28.4,26,30.09,10.0,Calm,Calm,-,N/A,,Clear,0,2013-04-27 15:32:00
10:52 AM,66.2,30.2,26,30.08,10.0,Calm,Calm,-,N/A,,Clear,0,2013-04-27 15:52:00
11:13 AM,66.2,30.2,26,30.08,10.0,Calm,Calm,-,N/A,,Clear,0,2013-04-27 16:13:00
11:32 AM,66.2,32.0,28,30.08,10.0,Calm,Calm,-,N/A,,Clear,0,2013-04-27 16:32:00
11:52 AM,68.0,30.2,24,30.07,10.0,SSW,3.5,-,N/A,,Clear,200,2013-04-27 16:52:00
12:13 PM,69.8,28.4,21,30.07,10.0,Calm,Calm,-,N/A,,Clear,0,2013-04-27 17:13:00
12:32 PM,69.8,26.6,20,30.06,10.0,SW,3.5,-,N/A,,Clear,230,2013-04-27 17:32:00
12:52 PM,69.8,26.6,20,30.05,10.0,South,6.9,-,N/A,,Clear,190,2013-04-27 17:52:00
1:13 PM,69.8,26.6,20,30.05,10.0,Calm,Calm,-,N/A,,Unknown,0,2013-04-27 18:13:00
1:32 PM,69.8,23.0,17,30.04,10.0,Calm,Calm,-,N/A,,Clear,0,2013-04-27 18:32:00
1:52 PM,71.6,24.8,17,30.03,10.0,SSW,5.8,-,N/A,,Clear,210,2013-04-27 18:52:00
2:13 PM,73.4,26.6,18,30.02,10.0,WSW,8.1,-,N/A,,Clear,240,2013-04-27 19:13:00
2:32 PM,71.6,24.8,17,30.02,10.0,Calm,Calm,-,N/A,,Clear,0,2013-04-27 19:32:00
2:52 PM,73.4,24.8,16,30.01,10.0,South,3.5,-,N/A,,Clear,170,2013-04-27 19:52:00
3:13 PM,73.4,24.8,16,29.99,10.0,South,6.9,-,N/A,,Clear,180,2013-04-27 20:13:00
3:32 PM,73.4,26.6,18,29.98,10.0,SSW,8.1,16.1,N/A,,Clear,200,2013-04-27 20:32:00
3:52 PM,73.4,28.4,19,29.98,10.0,South,9.2,17.3,N/A,,Clear,190,2013-04-27 20:52:00
4:13 PM,73.4,26.6,18,29.97,10.0,South,6.9,16.1,N/A,,Clear,180,2013-04-27 21:13:00
4:32 PM,73.4,26.6,18,29.96,10.0,SSW,8.1,-,N/A,,Clear,200,2013-04-27 21:32:00
4:52 PM,75.2,26.6,17,29.94,10.0,South,8.1,16.1,N/A,,Clear,190,2013-04-27 21:52:00
5:13 PM,75.2,26.6,17,29.94,10.0,SW,11.5,-,N/A,,Clear,220,2013-04-27 22:13:00
5:32 PM,73.4,28.4,19,29.94,10.0,South,3.5,-,N/A,,Clear,190,2013-04-27 22:32:00
5:53 PM,73.4,30.2,20,29.93,10.0,South,9.2,16.1,N/A,,Clear,180,2013-04-27 22:53:00
6:13 PM,73.4,33.8,23,29.93,10.0,South,6.9,-,N/A,,Clear,170,2013-04-27 23:13:00
6:32 PM,71.6,35.6,27,29.93,10.0,South,11.5,-,N/A,,Clear,180,2013-04-27 23:32:00
6:53 PM,71.6,37.4,29,29.93,10.0,SSE,8.1,-,N/A,,Clear,160,2013-04-27 23:53:00
7:13 PM,71.6,37.4,29,29.93,10.0,South,8.1,-,N/A,,Clear,170,2013-04-28 00:13:00
7:32 PM,69.8,39.2,33,29.92,10.0,South,4.6,-,N/A,,Clear,170,2013-04-28 00:32:00
7:53 PM,69.8,37.4,31,29.92,10.0,South,8.1,-,N/A,,Clear,180,2013-04-28 00:53:00
8:13 PM,64.4,39.2,40,29.92,10.0,SSE,5.8,-,N/A,,Clear,150,2013-04-28 01:13:00
8:32 PM,62.6,41.0,45,29.92,10.0,South,4.6,-,N/A,,Clear,180,2013-04-28 01:32:00
8:53 PM,62.6,39.2,42,29.93,10.0,South,5.8,-,N/A,,Clear,170,2013-04-28 01:53:00
9:12 PM,60.8,41.0,48,29.92,10.0,South,3.5,-,N/A,,Clear,170,2013-04-28 02:12:00
9:32 PM,59.0,41.0,51,29.93,10.0,South,3.5,-,N/A,,Clear,170,2013-04-28 02:32:00
9:53 PM,57.2,41.0,55,29.93,10.0,SSE,4.6,-,N/A,,Clear,160,2013-04-28 02:53:00
10:12 PM,57.2,41.0,55,29.92,10.0,South,6.9,-,N/A,,Clear,170,2013-04-28 03:12:00
10:32 PM,59.0,41.0,51,29.92,10.0,South,6.9,-,N/A,,Clear,180,2013-04-28 03:32:00
10:53 PM,57.2,41.0,55,29.91,10.0,South,5.8,-,N/A,,Clear,170,2013-04-28 03:53:00
11:12 PM,57.2,39.2,51,29.90,10.0,South,9.2,-,N/A,,Clear,170,2013-04-28 04:12:00
11:32 PM,57.2,39.2,51,29.90,10.0,South,9.2,-,N/A,,Clear,170,2013-04-28 04:32:00
11:53 PM,55.4,41.0,58,29.90,10.0,South,6.9,-,N/A,,Clear,170,2013-04-28 04:53:00